Location: Clover
(42.5131°N, 114.6874°W)
Time: 07:45:32
(UTC+00:00)

Courier 1B - Pass Details

Date: 10 November 2024
Orbit: 962 x 1208 km, 28.3° (Epoch: 06 December)

Event Time Altitude Azimuth Distance (km) Brightness Sun altitude
Rises 04:04:15 0° 252° (WSW) 3,709 11.2 -41.0°
Reaches altitude 10° 04:08:37 10° 226° (SW) 2,806 10.1 -41.8°
Enters shadow 04:09:10 11° 222° (SW) 2,740 10.0 -41.9°
